Regional Weather Roundup
Issued by NWS

Home | Current Version | Previous Version | Text Only | Print | Product List | Glossary Off
Versions: 1 2 3 4 5 6 7 8 9 10 11 12 13 14 15 16 17 18 19 20 21 22 23 24 25 26 27 28

000
ASUS45 KBOI 280310
RWRID

IDAHO REGIONAL WEATHER ROUNDUP
NATIONAL WEATHER SERVICE BOISE ID
900 PM MDT SAT MAY 27 2017

NOTE: "FAIR" INDICATES FEW OR NO CLOUDS BELOW 12000 FEET
WITH NO SIGNIFICANT WEATHER AND/OR OBSTRUCTIONS TO VISIBILITY

IDZ012-014-280400-
SOUTHWEST IDAHO


CITY           SKY/WX    TMP DP  RH WIND       PRES   REMARKS
BOISE          CLEAR     73  34  23 NW6       30.13S
CALDWELL       CLEAR     75  36  24 N3        30.12F
MOUNTAIN HOME  CLEAR     71  35  26 SE7       30.13S
$$

IDZ016-017-280400-
SOUTHCENTRAL IDAHO


CITY           SKY/WX    TMP DP  RH WIND       PRES   REMARKS
BURLEY         CLEAR     62  39  42 S3        30.20S
JEROME         CLEAR     63  46  54 NE6       30.20S
TWIN FALLS     CLEAR     58  44  60 E3        30.20S
$$

IDZ019>023-280400-
SOUTHEAST IDAHO


CITY           SKY/WX    TMP DP  RH WIND       PRES   REMARKS
IDAHO FALLS    MOCLDY    62  41  46 S7        30.24S
POCATELLO      CLEAR     60  40  47 S5        30.23F
REXBURG        CLEAR     60  40  47 S6        30.23S
$$

IDZ006-010-011-018-031-032-280400-
CENTRAL IDAHO MOUNTAINS


CITY           SKY/WX    TMP DP  RH WIND       PRES   REMARKS
MCCALL         CLEAR     64  33  31 W3        30.20S
HAILEY         PTCLDY    55  45  67 SE7       30.26
STANLEY          N/A     54  30  40 SW5       30.28S
SALMON         CLEAR     61  43  51 CALM      30.15S
CHALLIS        CLEAR     60  37  42 NW7       30.20R
$$

IDZ002-004-006-007-026-280400-
NORTHERN IDAHO


CITY           SKY/WX    TMP DP  RH WIND       PRES   REMARKS
LEWISTON       CLEAR     78  42  27 E5        30.07F
LOWELL           N/A     62  50  64 N3        30.09R
COEUR D`ALENE  CLEAR     72  50  45 S3        30.12S
MULLAN PASS    CLEAR     56  36  47 NW5       30.27F
$$




USA.gov is the U.S. government's official web portal to all federal, state and local government web resources and services.